CDT,Max TemperatureF,Mean TemperatureF,Min TemperatureF,Max Dew PointF,MeanDew PointF,Min DewpointF,Max Humidity, Mean Humidity, Min Humidity, Max Sea Level PressureIn, Mean Sea Level PressureIn, Min Sea Level PressureIn, Max VisibilityMiles, Mean VisibilityMiles, Min VisibilityMiles, Max Wind SpeedMPH, Mean Wind SpeedMPH, Max Gust SpeedMPH,PrecipitationIn, CloudCover, Events, WindDirDegrees
2013-10-1,79,68,58,65,62,56,97,81,58,29.98,29.94,29.90,10,8,3,20,10,26,0.00,2,,206
2013-10-2,80,70,61,66,62,53,97,76,47,30.09,30.02,29.98,10,7,0,12,6,,0.00,2,Fog,142
2013-10-3,80,72,64,69,66,62,96,87,63,29.98,29.91,29.84,10,7,2,14,7,18,0.37,5,Rain-Thunderstorm,194
2013-10-4,81,72,63,70,66,61,96,84,66,29.97,29.94,29.91,10,8,5,13,6,17,0.00,3,Rain-Thunderstorm,167
2013-10-5,77,67,57,70,66,52,95,84,74,29.93,29.87,29.79,10,9,3,15,8,18,0.00,5,Rain,214
2013-10-6,59,52,45,52,42,38,90,71,48,29.83,29.78,29.75,10,10,10,18,8,25,0.00,5,Rain,253
2013-10-7,70,56,42,49,45,40,95,71,35,30.09,29.95,29.80,10,9,1,16,9,24,0.00,2,,259
2013-10-8,76,62,47,50,47,44,96,62,32,30.19,30.14,30.09,10,10,2,14,5,16,0.00,0,,200
2013-10-9,75,60,46,48,45,40,90,60,29,30.24,30.17,30.12,10,10,10,10,6,10,0.00,0,,132
2013-10-10,76,60,44,56,50,42,93,70,42,30.17,30.10,30.03,10,9,5,10,4,18,0.00,0,,128
2013-10-11,78,68,58,58,54,51,85,65,39,30.06,30.00,29.92,10,10,10,17,8,24,0.00,3,,157
2013-10-12,70,60,50,62,52,40,90,71,34,30.21,30.02,29.94,10,10,7,15,10,21,0.01,3,Rain-Thunderstorm,230
2013-10-13,65,52,39,43,36,32,87,59,30,30.40,30.34,30.21,10,10,5,10,6,,0.00,0,,334
2013-10-14,66,52,38,46,41,35,93,69,38,30.41,30.29,30.11,10,10,2,15,6,20,0.00,0,,90
2013-10-15,70,58,48,61,50,41,93,74,61,30.09,29.91,29.78,10,9,3,21,11,24,0.01,4,Rain,194
2013-10-16,53,49,45,45,43,40,84,76,71,29.98,29.92,29.88,10,10,10,17,10,28,0.00,7,,256
2013-10-17,59,52,42,46,42,36,94,75,43,29.95,29.89,29.84,10,9,4,18,7,26,0.09,5,Rain,250
2013-10-18,50,45,40,42,38,36,93,77,60,29.99,29.94,29.86,10,10,4,18,9,24,0.00,6,,262
2013-10-19,55,46,39,41,37,32,89,70,42,29.95,29.87,29.81,10,10,10,22,8,31,0.00,5,Rain,241
2013-10-20,67,54,41,48,41,37,90,69,37,29.88,29.81,29.72,10,10,10,20,8,30,0.00,5,Rain,221
2013-10-21,54,48,41,48,42,35,86,82,78,29.94,29.88,29.82,10,10,10,14,9,18,0.07,7,Rain,279
2013-10-22,,,,,,,,,,,,,,,,,,,,,,
2013-10-23,,,,,,,,,,,,,,,,,,,,,,
2013-10-24,41,36,30,27,26,24,80,64,50,30.33,30.28,30.21,10,10,10,16,12,24,0.00,6,,289
2013-10-25,52,39,26,32,27,23,90,63,36,30.43,30.30,30.08,10,10,10,18,8,25,0.00,1,,243
2013-10-26,54,44,35,36,30,28,77,55,42,30.11,29.99,29.91,10,10,10,24,16,30,0.00,3,,276
2013-10-27,55,42,29,34,30,28,97,66,38,30.10,30.04,29.98,10,10,1,15,6,20,0.00,0,,235
2013-10-28,60,46,32,42,35,29,88,71,41,30.34,30.22,30.06,10,9,4,16,6,20,0.00,0,,78
2013-10-29,56,46,36,48,40,34,95,76,55,30.33,30.23,30.12,10,9,4,12,8,,0.00,3,,99
2013-10-30,62,55,50,61,54,48,98,95,90,30.12,29.99,29.78,10,2,0,13,7,,1.48,8,Fog-Rain,121
2013-10-31,63,54,45,63,56,41,97,93,85,29.77,29.50,29.28,10,8,2,23,11,31,1.28,8,Rain,239